tititudorancea.com
Ararat Weather - Ararat,Victoria,Australia
 
Daily Summary for November 29, 2014 Units:  Metric    English   Both
« Previous Day
Next Day »
Daily Weekly Monthly Yearly Custom
  Current: High: Low: Average:
Temperature: 8.8 °C 13.2 °C 8.8 °C 10.5 °C
Dew Point: 5.9 °C 6.3 °C 5.6 °C 5.8 °C
Humidity: 82% 82% 63% 73%
Wind Speed: 7.2km/h 12.2km/h 2.6km/h 6.6km/h
Wind Gust: 12.2km/h 19.5km/h - -
WindSSW - - SSW
Pressure: 1010.7 hPa 1012.1 hPa 1010.7 hPa -
Precipitation: 0 mm      
Historical Graphs
 
 
Ararat weather Find more about Weather in Ararat, AU


 




 


Tabular Data for November 29, 2014
Time Temperature Dew Point Pressure Wind Wind Speed Wind Gust Humidity Rainfall Rate (Hourly)
00:01 13.2 °C 6.3 °C 1012.1 hPa SSW 6.1 km/h 13.4 km/h 63% 0 mm
00:06 13.1 °C 6.2 °C 1012.1 hPa SSW 8.7 km/h 12.2 km/h 63% 0 mm
00:11 13.1 °C 6.2 °C 1012.1 hPa SW 6.1 km/h 12.2 km/h 63% 0 mm
00:16 12.9 °C 6.1 °C 1012.1 hPa SW 6.1 km/h 12.2 km/h 63% 0 mm
00:21 12.9 °C 6.1 °C 1012.1 hPa SW 5 km/h 13.4 km/h 63% 0 mm
00:26 12.8 °C 5.9 °C 1012.1 hPa SSW 5 km/h 13.4 km/h 63% 0 mm
00:31 12.7 °C 5.9 °C 1012.1 hPa SSW 7.2 km/h 12.2 km/h 63% 0 mm
00:36 12.7 °C 5.9 °C 1011.7 hPa SSW 7.2 km/h 12.2 km/h 63% 0 mm
00:41 12.6 °C 5.9 °C 1011.7 hPa SSW 3.5 km/h 12.2 km/h 64% 0 mm
00:46 12.4 °C 5.8 °C 1011.7 hPa SSW 3.5 km/h 11.1 km/h 64% 0 mm
00:51 12.4 °C 5.8 °C 1012.1 hPa SSW 5 km/h 11.1 km/h 64% 0 mm
00:56 12.4 °C 5.8 °C 1012.1 hPa SW 5 km/h 9.7 km/h 64% 0 mm
01:01 12.2 °C 5.6 °C 1012.1 hPa SW 6.1 km/h 11.1 km/h 64% 0 mm
01:06 11.9 °C 5.8 °C 1011.7 hPa SSW 7.2 km/h 14.8 km/h 66% 0 mm
01:11 11.6 °C 5.7 °C 1011.7 hPa SSW 6.1 km/h 14.8 km/h 67% 0 mm
01:16 11.4 °C 5.8 °C 1011.7 hPa SSW 6.1 km/h 13.4 km/h 68% 0 mm
01:21 11.4 °C 5.7 °C 1012.1 hPa SW 5 km/h 15.8 km/h 68% 0 mm
01:26 11.3 °C 5.8 °C 1011.7 hPa SW 7.2 km/h 15.8 km/h 69% 0 mm
01:31 11 °C 5.7 °C 1011.7 hPa SW 7.2 km/h 15.8 km/h 70% 0 mm
01:37 10.8 °C 5.7 °C 1011.7 hPa SW 8.7 km/h 15.8 km/h 71% 0 mm
01:42 10.8 °C 5.7 °C 1011.7 hPa SSW 6.1 km/h 17.2 km/h 71% 0 mm
01:47 10.7 °C 5.8 °C 1011.7 hPa SSW 6.1 km/h 17.2 km/h 72% 0 mm
01:52 10.6 °C 5.7 °C 1011.7 hPa SW 8.7 km/h 14.8 km/h 72% 0 mm
01:57 10.6 °C 5.7 °C 1011.7 hPa SW 5 km/h 15.8 km/h 72% 0 mm
02:02 10.5 °C 5.8 °C 1011.7 hPa SW 8.7 km/h 15.8 km/h 73% 0 mm
02:07 10.3 °C 5.7 °C 1011.4 hPa SSW 12.2 km/h 15.8 km/h 73% 0 mm
02:12 10.3 °C 5.7 °C 1011.4 hPa SSW 5 km/h 15.8 km/h 73% 0 mm
02:17 10.1 °C 5.7 °C 1011.4 hPa SSW 8.7 km/h 15.8 km/h 74% 0 mm
02:22 10 °C 5.8 °C 1011.7 hPa SSW 9.7 km/h 15.8 km/h 75% 0 mm
02:27 9.9 °C 5.7 °C 1011.4 hPa SSW 7.2 km/h 18.3 km/h 75% 0 mm
02:32 9.7 °C 5.7 °C 1011.4 hPa SSW 11.1 km/h 19.5 km/h 76% 0 mm
02:37 9.6 °C 5.8 °C 1011.1 hPa SSW 8.7 km/h 19.5 km/h 77% 0 mm
02:42 9.6 °C 5.8 °C 1011.4 hPa SW 5 km/h 19.5 km/h 77% 0 mm
02:47 9.6 °C 5.8 °C 1011.1 hPa SW 5 km/h 13.4 km/h 77% 0 mm
02:52 9.5 °C 5.7 °C 1011.1 hPa SW 7.2 km/h 13.4 km/h 77% 0 mm
02:57 9.6 °C 5.8 °C 1011.1 hPa SW 5 km/h 17.2 km/h 77% 0 mm
03:02 9.7 °C 5.9 °C 1011.1 hPa SW 6.1 km/h 17.2 km/h 77% 0 mm
03:07 9.7 °C 5.9 °C 1011.1 hPa SW 7.2 km/h 15.8 km/h 77% 0 mm
03:12 9.6 °C 5.8 °C 1011.1 hPa WSW 3.5 km/h 15.8 km/h 77% 0 mm
03:17 9.6 °C 5.8 °C 1011.1 hPa SW 5 km/h 14.8 km/h 77% 0 mm
03:22 9.5 °C 5.7 °C 1011.1 hPa SW 7.2 km/h 12.2 km/h 77% 0 mm
03:27 9.4 °C 5.8 °C 1011.1 hPa SSW 8.7 km/h 14.8 km/h 78% 0 mm
03:32 9.3 °C 5.7 °C 1010.7 hPa SSW 9.7 km/h 18.3 km/h 78% 0 mm
03:37 9.2 °C 5.8 °C 1011.1 hPa SSW 8.7 km/h 18.3 km/h 79% 0 mm
03:42 9.2 °C 5.8 °C 1011.1 hPa SSW 2.6 km/h 15.8 km/h 79% 0 mm
03:47 9.2 °C 5.9 °C 1011.1 hPa SSW 8.7 km/h 13.4 km/h 80% 0 mm
03:52 9.1 °C 5.8 °C 1010.7 hPa SSW 6.1 km/h 13.4 km/h 80% 0 mm
03:57 9.1 °C 5.8 °C 1010.7 hPa SSW 6.1 km/h 13.4 km/h 80% 0 mm
04:02 9.1 °C 5.8 °C 1010.7 hPa SSW 7.2 km/h 12.2 km/h 80% 0 mm
04:07 9.1 °C 6 °C 1010.7 hPa SSW 6.1 km/h 13.4 km/h 81% 0 mm
04:12 9 °C 5.9 °C 1010.7 hPa South 7.2 km/h 13.4 km/h 81% 0 mm
04:17 8.9 °C 6 °C 1010.7 hPa SSW 5 km/h 15.8 km/h 82% 0 mm
04:22 8.9 °C 6 °C 1010.7 hPa SSW 6.1 km/h 15.8 km/h 82% 0 mm
04:28 8.9 °C 6 °C 1010.7 hPa SSW 5 km/h 11.1 km/h 82% 0 mm
04:33 8.8 °C 5.9 °C 1010.7 hPa SW 7.2 km/h 13.4 km/h 82% 0 mm
04:38 8.8 °C 5.9 °C 1010.7 hPa SW 6.1 km/h 13.4 km/h 82% 0 mm
04:43 8.8 °C 5.9 °C 1010.7 hPa SSW 7.2 km/h 12.2 km/h 82% 0 mm
www.araratweather.com - Email: contact at araratweather.com
Data created with Cumulus & bmak
Click here to send mail.


ABOUT

Live weather data from Ararat, Victoria, Australia, 3377
Data uploaded from Cumulus every 5 minutes to Weather Underground.
This site then downloads the raw data for formatting and display.
Metric and imperial data can be displayed. Graphs and historical data available.
Includes Sun and Moon times and rain image live from BOM.

Check out Ararat Weather on Facebook, Twitter and Google +

Help support ongoing costs by checking out the ads





Follow @AraratWeather